Volver al catálogo

KUIPER-00137

ActivoComunicacionesLEO
NORAD 65963·PAYLOAD·🇺🇸 United States

Lanzado Oct 14, 2025 desde Cape Canaveral Space Force Station

Loading…

Próximos Pases (próximas 24 horas)

TLE

ActualizadoSource: CelesTrak SupGP

Época: Sep 14, 2026, 22:27 UTC

1 65963C 25228S   26257.93550926  .00000718  00000+0  94057-4 0  2570
2 65963  51.9020 228.8192 0000859  43.9596 344.7399 14.79924614    15

Sigue KUIPER-00137 en tiempo real con AllMySat

Download on the App Store